Regional Weather Roundup
Issued by NWS Northern Indiana

Home | Current Version | Previous Version | Graphics & Text | Print | Product List | Glossary On
Versions: 1 2 3 4 5 6 7 8 9 10 11 12 13 14 15 16 17 18 19 20 21 22 23 24 25 26 27 28 29 30 31 32 33 34 35 36 37 38 39 40 41 42 43 44 45 46 47 48 49 50
000
ASUS43 KIWX 270100
RWRIWX

KIWX WEATHER ROUNDUP
NATIONAL WEATHER SERVICE NORTHERN INDIANA
900 PM EDT TUE AUG 26 2014

NOTE: "FAIR" INDICATES FEW OR NO CLOUDS BELOW 12,000 FEET WITH NO
SIGNIFICANT WEATHER AND/OR OBSTRUCTIONS TO VISIBILITY.

* THESE STATIONS ARE NOT UNDER NWS QUALITY CONTROL. THEY ALSO MAY NOT
  REPORT WEATHER SUCH AS PRECIPITATION OR FOG.

INZ001>027-270200-
NORTHERN INDIANA

CITY           SKY/WX    TMP DP  RH WIND       PRES   REMARKS
GARY*          PTCLDY    73  70  88 NE6       30.07F
VALPARAISO       N/A     72  69  90 NE5       30.08R
KNOX*          PTCLDY    72  69  89 NE3       30.07S
SOUTH BEND     CLEAR     72  69  90 CALM      30.08S
ELKHART*       MOCLDY    72  72 100 CALM      30.08  FOG
GOSHEN         CLEAR     72  70  93 S3        30.08F
MONTICELLO*    PTCLDY    71  70  96 CALM      30.06R
WARSAW*        PTCLDY    70  68  94 CALM      30.09R
ANGOLA*        CLEAR     73  70  88 W5        30.09R
FORT WAYNE     MOCLDY    75  70  84 CALM      30.09S

$$
INZ028>050-270200-
CENTRAL INDIANA

CITY           SKY/WX    TMP DP  RH WIND       PRES   REMARKS
LAFAYETTE      MOCLDY    72  69  90 S3        30.05S
KOKOMO*        MOCLDY    72  70  94 CALM      30.07R
MUNCIE*        CLOUDY    74  69  85 CALM      30.07F
INDIANAPOLIS   CLOUDY    74  69  85 SE3       30.06S

$$
MIZ043>046-050>051-056>058-064>065-071>073-077>080-270200-
SOUTHWEST LOWER MICHIGAN

CITY           SKY/WX    TMP DP  RH WIND       PRES   REMARKS
BATTLE CREEK   CLOUDY    72  68  87 W3        30.08F
BENTON HARBOR  PTCLDY    67  65  93 CALM      30.07F
COLDWATER*     PTCLDY    72  70  95 CALM      30.08F
HILLSDALE*     MOCLDY    74  73  97 CALM      30.10R
HOLLAND        CLEAR     68  62  81 CALM      30.09S
GRAND RAPIDS   PTCLDY    70  65  84 W8        30.08R
KALAMAZOO      PTCLDY    73  68  84 NW3       30.08F
STURGIS*         N/A     70  70 100 CALM      30.08S FOG
THREE RIVERS*  MOCLDY    73  70  91 CALM      30.08S

$$
OHZ001>008-015>018-024>025-270200-
NORTHWEST OHIO

CITY           SKY/WX    TMP DP  RH WIND       PRES   REMARKS
DEFIANCE       MOCLDY    77  71  82 CALM      30.07R
FINDLAY        CLOUDY    82  69  64 CALM      30.06R
TOLEDO EXPRESS CLOUDY    77  71  82 SW5       30.05S
TOLEDO METCALF MOCLDY    78  69  73 S9        30.05S
LIMA           CLOUDY    74  70  87 W5        30.09R

$$
&&


USA.gov is the U.S. government's official web portal to all federal, state and local government web resources and services.